User: anonymous   Login
Location: Petruro
(41.0333°N, 14.7833°E)
Time: 17:17:01
(UTC+00:00)
Language:

Cosmos 1500 Rocket - Orbit

View from above orbital plane
View from above orbital plane
View from above satellite
View from above satellite

Ground track
Ground track

The orbit data is extracted from the following two-line orbital elements,

1 14373U 83099B   21262.88560979  .00000085  00000-0  73034-5 0  9997
2 14373  82.5393 230.4527 0021358 129.4548 291.0174 14.83845219 51572
Epoch (UTC): 19 September 2021 21:15:16
Eccentricity: 0.0021358
inclination: 82.5393°
perigee height: 602 km
apogee height: 632 km
right ascension of ascending node: 230.4527°
argument of perigee: 129.4548°
revolutions per day: 14.83845219
mean anomaly at epoch: 291.0174°
orbit number at epoch: 5157

The dashed part of the orbit path shows where the satellite is in the earth's shadow,  

DLR